Location: Unspecified
(40.7945°N, 0.0000°E)
Time: 01:29:12
(UTC+00:00)

Altair - Pass Details

Date: 26 January 2021
Orbit: 1501 x 1682 km, 47.2° (Epoch: 01 March)

Event Time Altitude Azimuth Distance (km) Brightness Sun altitude
Rises 08:17:17 0° 286° (WNW) 4,919 9.5 9.4°
Reaches altitude 10° 08:20:30 10° 289° (WNW) 3,940 9.1 9.9°
Maximum altitude 08:30:37 64° 11° (N) 1,826 8.0 11.4°
Drops below altitude 10° 08:40:38 10° 92° (E) 3,908 10.7 12.9°
Sets 08:43:49 0° 96° (E) 4,877 11.1 13.4°
